EN

Hourly Weather Dzierlin

Today, 21 October, Wednesday

Time Temperature Precipitation Wind Pressure Humidity
00:00 +9°C° 0 mm 7 mps 750 mmHg 63%
01:00 +9°C° 0 mm 7 mps 750 mmHg 65%
02:00 +9°C° 0 mm 7 mps 749 mmHg 66%
03:00 +9°C° 0 mm 6 mps 749 mmHg 67%
04:00 +9°C° 0 mm 6 mps 749 mmHg 68%
05:00 +9°C° 0 mm 5 mps 749 mmHg 67%
06:00 +9°C° 0 mm 5 mps 749 mmHg 67%
07:00 +9°C° 0 mm 5 mps 749 mmHg 66%
08:00 +10°C° 0 mm 5 mps 749 mmHg 66%
09:00 +10°C° 0 mm 5 mps 749 mmHg 65%
10:00 +12°C° 0 mm 5 mps 749 mmHg 64%
11:00 +12°C° 0 mm 5 mps 748 mmHg 63%
12:00 +13°C° 0 mm 6 mps 748 mmHg 62%
13:00 +14°C° 0 mm 6 mps 748 mmHg 61%
14:00 +13°C° 0 mm 5 mps 748 mmHg 63%
15:00 +13°C° 0 mm 5 mps 748 mmHg 65%
16:00 +13°C° 0 mm 5 mps 747 mmHg 67%
17:00 +12°C° 0 mm 5 mps 748 mmHg 69%
18:00 +12°C° 0 mm 5 mps 748 mmHg 70%
19:00 +10°C° 0 mm 5 mps 748 mmHg 72%
20:00 +10°C° 0 mm 5 mps 748 mmHg 72%
21:00 +10°C° 0 mm 5 mps 748 mmHg 72%
22:00 +10°C° 0 mm 5 mps 748 mmHg 73%
23:00 +10°C° 0 mm 5 mps 748 mmHg 73%

Tomorrow, 22 October, Thursday

Time Temperature Precipitation Wind Pressure Humidity
00:00 +11°C° 0 mm 4 mps 748 mmHg 73%
01:00 +11°C° 0 mm 4 mps 749 mmHg 74%
02:00 +10°C° 0 mm 5 mps 749 mmHg 74%
03:00 +10°C° 0 mm 5 mps 748 mmHg 75%
04:00 +10°C° 0 mm 5 mps 748 mmHg 76%
05:00 +10°C° 0 mm 5 mps 748 mmHg 75%
06:00 +10°C° 0 mm 5 mps 749 mmHg 74%
07:00 +10°C° 0 mm 5 mps 749 mmHg 73%
08:00 +13°C° 0 mm 5 mps 749 mmHg 69%
09:00 +14°C° 0 mm 5 mps 749 mmHg 64%
10:00 +16°C° 0 mm 6 mps 750 mmHg 60%
11:00 +17°C° 0 mm 5 mps 750 mmHg 59%
12:00 +19°C° 0 mm 5 mps 750 mmHg 57%
13:00 +20°C° 0 mm 5 mps 750 mmHg 56%
14:00 +19°C° 0 mm 5 mps 749 mmHg 60%
15:00 +18°C° 0 mm 4 mps 749 mmHg 65%
16:00 +17°C° 0 mm 3 mps 749 mmHg 69%
17:00 +17°C° 0 mm 3 mps 749 mmHg 71%
18:00 +16°C° 0 mm 3 mps 749 mmHg 72%
19:00 +15°C° 0 mm 4 mps 750 mmHg 74%
20:00 +14°C° 0 mm 4 mps 750 mmHg 75%
21:00 +14°C° 0 mm 4 mps 750 mmHg 76%
22:00 +14°C° 0 mm 4 mps 750 mmHg 77%
23:00 +14°C° 0 mm 4 mps 749 mmHg 76%

Day after tomorrow, 23 October, Friday

Time Temperature Precipitation Wind Pressure Humidity
00:00 +14°C° 0 mm 4 mps 749 mmHg 76%
01:00 +13°C° 0 mm 4 mps 749 mmHg 75%
02:00 +13°C° 0 mm 4 mps 749 mmHg 75%
03:00 +13°C° 0 mm 4 mps 749 mmHg 75%
04:00 +13°C° 0 mm 4 mps 748 mmHg 74%
05:00 +13°C° 0 mm 4 mps 748 mmHg 75%
06:00 +13°C° 0 mm 4 mps 748 mmHg 75%
07:00 +13°C° 0 mm 4 mps 748 mmHg 75%
08:00 +14°C° 0 mm 4 mps 748 mmHg 72%
09:00 +14°C° 0 mm 5 mps 748 mmHg 69%
10:00 +15°C° 0 mm 5 mps 747 mmHg 67%
11:00 +16°C° 0 mm 5 mps 747 mmHg 66%
12:00 +17°C° 0 mm 5 mps 747 mmHg 65%
13:00 +18°C° 0 mm 4 mps 747 mmHg 64%
14:00 +18°C° 0 mm 4 mps 747 mmHg 68%
15:00 +17°C° 0 mm 3 mps 747 mmHg 71%
16:00 +17°C° 0 mm 2 mps 747 mmHg 74%
17:00 +16°C° 0 mm 2 mps 747 mmHg 77%
18:00 +15°C° 0 mm 2 mps 747 mmHg 81%
19:00 +13°C° 0 mm 3 mps 747 mmHg 85%
20:00 +13°C° 0 mm 3 mps 747 mmHg 85%
21:00 +13°C° 0 mm 3 mps 747 mmHg 85%
22:00 +13°C° 0 mm 3 mps 747 mmHg 85%
23:00 +13°C° 0.4 mm 3 mps 747 mmHg 88%

24 October, Saturday

Time Temperature Precipitation Wind Pressure Humidity
00:00 +13°C° 0.4 mm 3 mps 747 mmHg 91%
01:00 +13°C° 0.4 mm 3 mps 747 mmHg 94%
02:00 +13°C° 0.7 mm 3 mps 746 mmHg 94%
03:00 +13°C° 0.7 mm 3 mps 746 mmHg 93%
04:00 +13°C° 0.7 mm 3 mps 746 mmHg 93%
05:00 +12°C° 0 mm 3 mps 747 mmHg 94%
06:00 +12°C° 0 mm 4 mps 747 mmHg 94%
07:00 +12°C° 0 mm 4 mps 747 mmHg 95%
08:00 +13°C° 0 mm 5 mps 747 mmHg 90%
09:00 +13°C° 0 mm 6 mps 748 mmHg 85%
10:00 +14°C° 0 mm 7 mps 748 mmHg 80%
11:00 +14°C° 0 mm 7 mps 748 mmHg 75%
12:00 +15°C° 0 mm 7 mps 748 mmHg 70%
13:00 +15°C° 0 mm 7 mps 748 mmHg 65%
14:00 +15°C° 0 mm 6 mps 748 mmHg 67%
15:00 +14°C° 0 mm 5 mps 749 mmHg 70%
16:00 +13°C° 0 mm 4 mps 749 mmHg 73%
17:00 +13°C° 0 mm 3 mps 749 mmHg 75%
18:00 +12°C° 0 mm 3 mps 750 mmHg 78%
19:00 +12°C° 0 mm 3 mps 750 mmHg 80%
20:00 +12°C° 0 mm 2 mps 751 mmHg 82%
21:00 +12°C° 0 mm 2 mps 751 mmHg 84%
22:00 +11°C° 0 mm 1 mps 751 mmHg 86%
23:00 +10°C° 0 mm 2 mps 751 mmHg 88%

25 October, Sunday

Time Temperature Precipitation Wind Pressure Humidity
00:00 +10°C° 0 mm 2 mps 751 mmHg 89%
01:00 +9°C° 0 mm 2 mps 751 mmHg 90%
02:00 +9°C° 0 mm 2 mps 751 mmHg 91%
03:00 +9°C° 0 mm 2 mps 751 mmHg 91%
04:00 +9°C° 0 mm 3 mps 750 mmHg 91%
05:00 +9°C° 0 mm 3 mps 750 mmHg 92%
06:00 +9°C° 0 mm 3 mps 750 mmHg 92%
07:00 +9°C° 0 mm 3 mps 750 mmHg 92%
08:00 +10°C° 0 mm 3 mps 750 mmHg 85%
09:00 +12°C° 0 mm 4 mps 750 mmHg 79%
10:00 +13°C° 0 mm 4 mps 750 mmHg 72%
11:00 +14°C° 0 mm 4 mps 750 mmHg 68%
12:00 +15°C° 0 mm 4 mps 749 mmHg 64%
13:00 +17°C° 0 mm 4 mps 749 mmHg 59%
14:00 +15°C° 0 mm 4 mps 748 mmHg 63%
15:00 +16°C° 0 mm 3 mps 748 mmHg 67%
16:00 +14°C° 0 mm 3 mps 748 mmHg 71%
17:00 +14°C° 0 mm 3 mps 748 mmHg 74%
18:00 +13°C° 0 mm 4 mps 748 mmHg 76%
19:00 +12°C° 0 mm 4 mps 748 mmHg 78%
20:00 +12°C° 0 mm 4 mps 747 mmHg 79%
21:00 +12°C° 0 mm 4 mps 747 mmHg 79%
22:00 +11°C° 0 mm 4 mps 747 mmHg 79%
23:00 +11°C° 0 mm 4 mps 747 mmHg 80%

26 October, Monday

Time Temperature Precipitation Wind Pressure Humidity
00:00 +11°C° 0 mm 4 mps 747 mmHg 81%
01:00 +10°C° 0 mm 3 mps 747 mmHg 83%
02:00 +10°C° 0 mm 3 mps 747 mmHg 84%
03:00 +10°C° 0 mm 3 mps 746 mmHg 85%
04:00 +9°C° 0 mm 3 mps 746 mmHg 86%
05:00 +9°C° 0 mm 3 mps 746 mmHg 85%
06:00 +9°C° 0 mm 3 mps 746 mmHg 85%
07:00 +9°C° 0 mm 3 mps 746 mmHg 85%
08:00 +11°C° 0 mm 3 mps 746 mmHg 79%
09:00 +12°C° 0 mm 4 mps 746 mmHg 73%
10:00 +13°C° 0 mm 4 mps 746 mmHg 67%
11:00 +15°C° 0 mm 4 mps 745 mmHg 63%
12:00 +17°C° 0 mm 4 mps 745 mmHg 59%
13:00 +18°C° 0 mm 4 mps 745 mmHg 55%
14:00 +17°C° 0 mm 3 mps 745 mmHg 60%
15:00 +16°C° 0 mm 3 mps 744 mmHg 64%
16:00 +14°C° 0 mm 3 mps 744 mmHg 69%
17:00 +14°C° 0 mm 3 mps 744 mmHg 71%
18:00 +14°C° 0 mm 3 mps 744 mmHg 74%
19:00 +13°C° 0 mm 3 mps 744 mmHg 76%
20:00 +13°C° 0.1 mm 3 mps 744 mmHg 77%
21:00 +13°C° 0.1 mm 3 mps 744 mmHg 78%
22:00 +13°C° 0.1 mm 3 mps 744 mmHg 79%
23:00 +13°C° 0 mm 3 mps 744 mmHg 79%

27 October, Tuesday

Time Temperature Precipitation Wind Pressure Humidity
00:00 +13°C° 0 mm 3 mps 744 mmHg 79%
01:00 +13°C° 0 mm 3 mps 744 mmHg 78%
02:00 +12°C° 0 mm 3 mps 744 mmHg 78%
03:00 +12°C° 0 mm 3 mps 744 mmHg 78%
04:00 +12°C° 0 mm 3 mps 744 mmHg 78%
05:00 +12°C° 0 mm 3 mps 744 mmHg 78%
06:00 +12°C° 0 mm 3 mps 744 mmHg 79%
07:00 +11°C° 0 mm 3 mps 745 mmHg 80%
08:00 +13°C° 0 mm 3 mps 745 mmHg 75%
09:00 +14°C° 0 mm 3 mps 745 mmHg 71%
10:00 +15°C° 0 mm 4 mps 746 mmHg 66%
11:00 +17°C° 0 mm 3 mps 746 mmHg 64%
12:00 +18°C° 0 mm 3 mps 746 mmHg 61%
13:00 +18°C° 0 mm 3 mps 747 mmHg 59%
14:00 +18°C° 0 mm 2 mps 747 mmHg 62%
15:00 +17°C° 0 mm 2 mps 747 mmHg 66%
16:00 +16°C° 0 mm 1 mps 747 mmHg 69%
17:00 +15°C° 0 mm 1 mps 748 mmHg 74%
18:00 +14°C° 0 mm 1 mps 748 mmHg 78%
19:00 +13°C° 0 mm 2 mps 749 mmHg 83%
20:00 +13°C° 0 mm 2 mps 749 mmHg 84%
21:00 +13°C° 0 mm 2 mps 749 mmHg 85%
22:00 +13°C° 0 mm 2 mps 750 mmHg 87%
23:00 +12°C° 0 mm 1 mps 750 mmHg 88%
Show more